Latest Coastal Weather Observations for Wilsons Promontory

IDV60701

Issued at 11:45 pm EST Tuesday 30 September 2014 (issued every 10 minutes, with the page automatically refreshed every 10 minutes)

About coastal observations | Map of coastal stations | Coastal observations for VIC | Marine services | Other Formats
Station Details ID: 085096 Name: WILSONS PROMONTORY LIGHTHOUSE Lat: -39.13 Lon: 146.42 Height: 95.0 m
Data from the previous 72 hours. | See also: Recent months at Wilsons Promontory
Date/Time
EST
Temp

°C
Wind Pressure Rain
since 9am
mm
Weather Cloud Vis
km
Sea
Height
m
Swell
Dir
 
Speed
knots
Gust
knots
hPa Trend Height
m
Period
s
Dir
30/11:30pm 9.3 W 28 39 1008.6 - 8.0 - - - - - - -
30/11:00pm 8.5 W 22 36 1008.8 - 8.0 - - - - - - -
30/10:30pm 9.3 W 27 42 1008.1 - 7.8 - - - - - - -
30/10:00pm 10.3 W 30 45 1007.5 - 7.8 - - - - - - -
30/09:39pm 10.8 W 29 48 1006.8 - 7.6 - - - - - - -
30/09:30pm 10.5 W 25 36 1007.3 - 7.6 - - - - - - -
30/09:00pm 10.7 W 28 42 1006.7 - 7.6 - - - - - - -
30/08:30pm 10.5 W 31 43 1007.0 - 7.6 - - - - - - -
30/08:00pm 11.1 W 27 41 1006.2 - 7.6 - - - - - - -
30/07:52pm 10.1 W 32 55 1006.2 - 7.6 - - - - - - -
30/07:48pm 9.7 W 32 56 1006.0 - 7.6 - - - - - - -
30/07:41pm 10.0 WSW 44 56 1004.4 - 7.4 - - - - - - -
30/07:30pm 11.6 W 30 43 1005.1 - 7.4 - - - - - - -
30/07:00pm 11.4 W 33 43 1005.2 - 7.4 - - - - - - -
30/06:31pm 11.2 W 36 46 1004.7 - 7.4 - - - - - - -
30/06:30pm 11.2 W 38 48 1004.6 - 7.4 - - - - - - -
30/06:23pm 10.9 W 26 48 1004.8 - 7.4 - - - - - - -
30/06:21pm 11.0 W 37 48 1004.3 - 7.4 - - - - - - -
30/06:00pm 9.9 W 26 39 1004.1 - 7.4 - - - - - - -
30/05:30pm 9.8 W 31 53 1003.3 - 6.6 - - - - - - -
30/05:07pm 10.5 W 38 49 1002.6 - 6.2 - - - - - - -
30/05:06pm 10.5 W 41 49 1002.5 - 6.2 - - - - - - -
30/05:00pm 10.1 W 28 45 1002.8 - 6.2 - - - - - - -
30/04:54pm 10.3 W 28 50 1003.5 - 6.0 - - - - - - -
30/04:30pm 10.0 W 41 60 1001.5 - 5.8 - - - - - - -
30/04:14pm 10.8 W 41 60 1000.8 - 5.4 - - - - - - -
30/04:09pm 11.0 W 30 60 1000.7 - 5.4 - - - - - - -
30/04:00pm 11.6 W 43 59 999.9 - 5.4 - - - - - - -
30/03:45pm 11.4 W 41 56 999.2 - 5.4 - - - - - - -
30/03:36pm 11.5 W 28 57 1000.3 - 5.0 - - - - - - -
30/03:30pm 11.3 W 41 66 999.3 - 5.0 - - - - - - -
30/03:22pm 11.2 W 41 66 998.6 - 4.0 - - - - - - -
30/03:16pm 12.0 W 39 51 999.8 - 3.4 - - - - - - -
30/03:08pm 13.8 W 26 59 1000.2 - 0.2 - - - - - - -
30/03:05pm 14.8 W 45 59 998.8 - 0.0 - - - - - - -
30/03:04pm 15.7 W 25 59 997.3 - 0.0 - - - - - - -
30/03:03pm 17.4 WNW 17 47 999.1 - 0.0 - - - - - - -
30/03:00pm 18.9 N 9 19 999.5 - 0.0 - - - - - - -
30/02:30pm 19.1 NNE 6 21 999.2 - 0.0 - - - - - - -
30/02:00pm 19.6 NNW 10 27 999.7 - 0.0 - - - - - - -
30/01:30pm 19.2 W 14 30 1000.1 - 0.0 - - - - - - -
30/01:00pm 19.3 WNW 17 33 1001.0 - 0.0 - - - - - - -
30/12:31pm 19.7 W 15 35 1001.4 - 0.0 - - - - - - -
30/12:30pm 19.8 W 14 35 1001.2 - 0.0 - - - - - - -
30/12:05pm 19.0 W 18 31 1001.7 - 0.0 - - - - - - -
30/12:00pm 19.2 NW 8 25 1002.3 - 0.0 - - - - - - -
30/11:36am 18.9 NW 17 30 1002.5 - 0.0 - - - - - - -
30/11:30am 19.1 N 7 21 1002.7 - 0.0 - - - - - - -
30/11:00am 18.4 NW 13 24 1003.1 - 0.0 - - - - - - -
30/10:30am 17.3 N 11 27 1004.2 - 0.0 - - - - - - -
30/10:00am 17.0 NNW 7 21 1005.0 - 0.0 - - - - - - -
30/09:30am 15.8 N 7 15 1005.6 - 0.0 - - - - - - -
30/09:00am 15.4 NNW 9 20 1006.1 - 0.0 - - - - - - -
30/08:30am 14.7 NNE 8 28 1006.0 - 0.0 - - - - - - -
30/08:00am 14.3 W 11 23 1006.7 - 0.0 - - - - - - -
30/07:30am 13.8 W 18 29 1006.6 - 0.0 - - - - - - -
30/07:06am 13.6 W 15 26 1007.1 - 0.0 - - - - - - -
30/07:00am 13.5 W 13 22 1007.1 - 0.0 - - - - - - -
30/06:30am 13.5 WNW 10 18 1007.2 - 0.0 - - - - - - -
30/06:00am 13.2 NNW 10 19 1007.2 - 0.0 - - - - - - -
30/05:30am 12.8 WNW 3 10 1007.1 - 0.0 - - - - - - -
30/05:00am 12.2 NE 5 7 1007.0 - 0.0 - - - - - - -
30/04:30am 12.6 N 5 8 1007.2 - 0.0 - - - - - - -
30/04:00am 12.0 NW 4 6 1007.4 - 0.0 - - - - - - -
30/03:30am 12.0 WNW 3 5 1007.8 - 0.0 - - - - - - -
30/03:00am 12.1 W 6 8 1008.3 - 0.0 - - - - - - -
30/02:30am 12.2 W 6 8 1008.8 - 0.0 - - - - - - -
30/02:00am 12.4 W 5 7 1009.3 - 0.0 - - - - - - -
30/01:30am 12.3 W 7 9 1009.7 - 0.0 - - - - - - -
30/01:00am 12.5 W 9 11 1010.3 - 0.0 - - - - - - -
30/12:30am 12.6 W 10 13 1010.5 - 0.0 - - - - - - -
30/12:00am 13.6 W 10 11 1010.7 - 0.0 - - - - - - -
 
Date/Time
EST
Temp

°C
Wind Pressure Rain
since 9am
mm
Weather Cloud Vis
km
Sea
Height
m
Swell
Dir
 
Speed
knots
Gust
knots
hPa Trend Height
m
Period
s
Dir
29/11:30pm 13.5 NW 3 7 1010.9 - 0.0 - - - - - - -
29/11:00pm 13.6 N 9 16 1010.8 - 0.0 - - - - - - -
29/10:30pm 13.5 N 15 19 1011.0 - 0.0 - - - - - - -
29/10:00pm 13.3 N 13 20 1011.2 - 0.0 - - - - - - -
29/09:30pm 12.7 NNE 13 16 1011.4 - 0.0 - - - - - - -
29/09:00pm 13.0 NNE 11 15 1011.6 - 0.0 - - - - - - -
29/08:30pm 12.4 NNE 5 8 1011.3 - 0.0 - - - - - - -
29/08:00pm 12.8 WSW 2 4 1011.3 - 0.0 - - - - - - -
29/07:30pm 13.0 SW 7 8 1011.0 - 0.0 - - - - - - -
29/07:00pm 12.8 WNW 6 7 1010.6 - 0.0 - - - - - - -
29/06:30pm 13.4 W 9 11 1010.3 - 0.0 - - - - - - -
29/06:00pm 13.8 W 13 17 1010.2 - 0.0 - - - - - - -
29/05:30pm 15.0 W 16 23 1009.8 - 0.0 - - - - - - -
29/05:00pm 15.8 W 22 29 1009.4 - 0.0 - - - - - - -
29/04:34pm 15.9 W 19 30 1009.4 - 0.0 - - - - - - -
29/04:30pm 16.0 W 20 28 1009.5 - 0.0 - - - - - - -
29/04:16pm 15.8 W 20 30 1009.6 - 0.0 - - - - - - -
29/04:00pm 15.9 W 21 30 1009.6 - 0.0 - - - - - - -
29/03:30pm 15.9 W 21 31 1009.6 - 0.0 - - - - - - -
29/03:00pm 15.8 W 22 32 1009.9 - 0.0 - - - - - - -
29/02:30pm 16.1 W 23 38 1009.8 - 0.0 - - - - - - -
29/02:00pm 15.7 W 22 37 1010.0 - 0.0 - - - - - - -
29/01:30pm 15.4 W 24 40 1010.2 - 0.0 - - - - - - -
29/01:00pm 15.1 W 23 37 1010.6 - 0.0 - - - - - - -
29/12:30pm 15.4 W 19 35 1010.9 - 0.0 - - - - - - -
29/12:00pm 15.6 W 18 30 1011.2 - 0.0 - - - - - - -
29/11:30am 15.3 W 18 33 1011.1 - 0.0 - - - - - - -
29/11:00am 15.0 W 21 35 1011.1 - 0.0 - - - - - - -
29/10:30am 14.8 W 19 35 1011.2 - 0.0 - - - - - - -
29/10:00am 14.4 W 24 41 1011.1 - 0.0 - - - - - - -
29/09:30am 14.5 W 30 40 1010.5 - 0.0 - - - - - - -
29/09:00am 14.3 W 32 44 1009.7 - 1.0 - - - - - - -
29/08:30am 14.1 W 32 44 1009.6 - 1.0 - - - - - - -
29/08:00am 13.9 W 31 43 1009.5 - 1.0 - - - - - - -
29/07:30am 13.7 W 33 47 1008.5 - 1.0 - - - - - - -
29/07:00am 13.6 W 29 41 1008.7 - 1.0 - - - - - - -
29/06:30am 13.4 W 30 42 1008.4 - 1.0 - - - - - - -
29/06:01am 13.2 W 31 41 1008.6 - 1.0 - - - - - - -
29/06:00am 13.2 W 32 41 1008.5 - 1.0 - - - - - - -
29/05:58am 13.2 W 33 41 1008.3 - 1.0 - - - - - - -
29/05:30am 13.1 W 21 36 1008.0 - 1.0 - - - - - - -
29/05:00am 13.4 W 23 37 1007.5 - 1.0 - - - - - - -
29/04:30am 13.6 WNW 21 41 1007.5 - 1.0 - - - - - - -
29/04:00am 13.7 WNW 17 34 1007.0 - 1.0 - - - - - - -
29/03:30am 13.6 WNW 15 30 1007.0 - 1.0 - - - - - - -
29/03:00am 13.9 W 18 29 1006.5 - 1.0 - - - - - - -
29/02:30am 13.9 W 24 36 1006.9 - 1.0 - - - - - - -
29/02:00am 13.8 W 21 33 1007.2 - 1.0 - - - - - - -
29/01:31am 13.7 W 22 32 1007.0 - 1.0 - - - - - - -
29/01:30am 13.7 W 23 32 1007.0 - 1.0 - - - - - - -
29/01:21am 13.7 W 21 31 1006.7 - 1.0 - - - - - - -
29/01:00am 13.7 W 22 29 1006.3 - 1.0 - - - - - - -
29/12:30am 13.9 W 22 32 1005.5 - 0.4 - - - - - - -
29/12:00am 14.9 W 21 31 1005.6 - 0.0 - - - - - - -
 
Date/Time
EST
Temp

°C
Wind Pressure Rain
since 9am
mm
Weather Cloud Vis
km
Sea
Height
m
Swell
Dir
 
Speed
knots
Gust
knots
hPa Trend Height
m
Period
s
Dir
28/11:48pm 15.1 W 20 30 1005.8 - 0.0 - - - - - - -
28/11:30pm 15.4 W 20 29 1005.3 - 0.0 - - - - - - -
28/11:00pm 16.5 W 16 26 1004.6 - 0.0 - - - - - - -
28/10:53pm 16.6 WNW 15 25 1004.8 - 0.0 - - - - - - -
28/10:30pm 17.1 W 14 20 1004.9 - 0.0 - - - - - - -
28/10:00pm 17.1 W 18 27 1005.1 - 0.0 - - - - - - -
28/09:30pm 17.6 W 16 23 1004.8 - 0.0 - - - - - - -
28/09:00pm 18.1 W 13 19 1004.6 - 0.0 - - - - - - -
28/08:39pm 20.5 WSW 18 30 1003.7 - 0.0 - - - - - - -
28/08:30pm 23.3 NNW 9 19 1004.2 - 0.0 - - - - - - -
28/08:00pm 24.3 N 16 26 1003.2 - 0.0 - - - - - - -
28/07:42pm 24.5 N 19 30 1003.1 - 0.0 - - - - - - -
28/07:30pm 24.0 N 8 20 1003.1 - 0.0 - - - - - - -
28/07:00pm 24.1 N 13 22 1002.7 - 0.0 - - - - - - -
28/06:30pm 24.3 N 16 31 1002.3 - 0.0 - - - - - - -
28/06:06pm 24.5 N 15 33 1002.8 - 0.0 - - - - - - -
28/06:00pm 24.7 N 15 24 1002.9 - 0.0 - - - - - - -
28/05:30pm 25.3 N 17 34 1002.7 - 0.0 - - - - - - -
28/05:05pm 25.4 N 15 27 1002.9 - 0.0 - - - - - - -
28/05:00pm 25.2 N 15 24 1003.2 - 0.0 - - - - - - -
28/04:30pm 25.3 N 17 33 1003.6 - 0.0 - - - - - - -
28/04:00pm 25.4 N 15 29 1003.6 - 0.0 - - - - - - -
28/03:30pm 25.3 N 15 33 1003.9 - 0.0 - - - - - - -
28/03:00pm 25.5 NNW 21 38 1004.1 - 0.0 - - - - - - -
28/02:48pm 25.6 NNW 16 42 1004.4 - 0.0 - - - - - - -
28/02:39pm 25.5 N 16 30 1004.6 - 0.0 - - - - - - -
28/02:30pm 25.5 NW 7 28 1004.9 - 0.0 - - - - - - -
28/02:00pm 26.2 NNW 17 40 1005.2 - 0.0 - - - - - - -
28/01:30pm 25.8 N 20 35 1005.7 - 0.0 - - - - - - -
28/01:00pm 25.8 NNW 19 38 1006.0 - 0.0 - - - - - - -
28/12:30pm 26.6 N 19 35 1006.1 - 0.0 - - - - - - -
28/12:00pm 26.7 N 22 46 1005.8 - 0.0 - - - - - - -
28/11:30am 26.2 N 22 47 1006.2 - 0.0 - - - - - - -
28/11:00am 25.5 N 22 48 1007.5 - 0.0 - - - - - - -
28/10:55am 25.2 N 21 48 1007.6 - 0.0 - - - - - - -
28/10:30am 24.7 N 15 31 1009.1 - 0.0 - - - - - - -
28/10:00am 23.7 NNW 20 41 1009.4 - 0.0 - - - - - - -
28/09:30am 23.5 NNW 27 43 1009.6 - 0.0 - - - - - - -
28/09:00am 23.6 NNW 24 44 1010.3 - 0.0 - - - - - - -
28/08:30am 23.2 NNW 23 46 1010.1 - 0.0 - - - - - - -
28/08:00am 23.0 NNW 24 45 1010.3 - 0.0 - - - - - - -
28/07:30am 22.6 NNW 25 41 1010.2 - 0.0 - - - - - - -
28/07:00am 22.0 NNW 26 43 1010.1 - 0.0 - - - - - - -
28/06:30am 21.8 NNW 28 47 1010.2 - 0.0 - - - - - - -
28/06:00am 21.6 NNW 29 46 1010.2 - 0.0 - - - - - - -
28/05:30am 21.8 NNW 29 47 1010.1 - 0.0 - - - - - - -
28/05:00am 21.9 NNW 24 41 1010.3 - 0.0 - - - - - - -
28/04:30am 21.9 NNW 25 42 1010.4 - 0.0 - - - - - - -
28/04:00am 21.6 NNW 22 37 1010.6 - 0.0 - - - - - - -
28/03:30am 21.2 NNW 20 35 1011.0 - 0.0 - - - - - - -
28/03:00am 21.2 NNW 25 37 1011.1 - 0.0 - - - - - - -
28/02:30am 21.0 NNW 21 41 1011.6 - 0.0 - - - - - - -
28/02:00am 21.0 NNW 22 37 1011.8 - 0.0 - - - - - - -
28/01:30am 20.5 NNW 21 37 1012.5 - 0.0 - - - - - - -
28/01:00am 20.0 NNW 20 30 1013.0 - 0.0 - - - - - - -
28/12:30am 18.8 N 17 28 1013.5 - 0.0 - - - - - - -
28/12:20am 18.1 N 17 28 1013.5 - 0.0 - - - - - - -
28/12:00am 14.3 N 17 22 1013.9 - 0.0 - - - - - - -

Other Formats:

Comma delimited format used in spreadsheet applications
http://www.bom.gov.au/fwo/IDV60701/IDV60701.94893.axf

JavaScript Object Notation format (JSON) in row-major order
http://www.bom.gov.au/fwo/IDV60701/IDV60701.94893.json